Вернуться в каталог

DELTA 1 DEB

АктивенSSO
NORAD 40771·DEBRIS·🇺🇸 United States

Запущен Jul 29, 1976 с Vandenberg Space Force Base

Loading…

Ближайшие Пролёты (ближайшие 24 часа)

TLE

СвежийSource: Space-Track

Эпоха: Sep 14, 2026, 10:49 UTC

1 40771U 76077GQ  26257.45090470 -.00000003  00000-0  32154-3 0  9999
2 40771 102.2097 238.5825 0014723  50.2335 104.4937 12.40121241549802

Отслеживайте DELTA 1 DEB в реальном времени с AllMySat

Download on the App Store